Location: Sark
(49.4440°N, 2.3620°W)
Time: 21:59:02
(UTC+00:00)

N. Korean satellite - Visible Passes

Search period start: 17 January 2018 00:00
Search period end: 27 January 2018 00:00
Orbit: 459 x 515 km, 97.2° (Epoch: 17 January)

Date Brightness Start Highest point End Pass type
(mag) Time Alt. Az. Time Alt. Az. Time Alt. Az.
17 Jan 7.7 06:40:57 10° NNE 06:44:18 45° E 06:47:37 10° S visible
17 Jan 7.2 17:21:10 10° SE 17:24:28 34° ENE 17:27:44 10° N visible
17 Jan 9.4 18:55:22 10° SW 18:58:05 20° W 19:00:47 10° NW visible
18 Jan 9.1 06:17:39 10° NE 06:20:32 24° E 06:23:23 10° SSE visible
18 Jan 8.3 18:30:57 10° SSW 18:34:17 35° W 18:37:35 10° NNW visible
19 Jan 9.9 05:54:51 10° ENE 05:56:40 14° E 05:58:28 10° ESE visible
19 Jan 6.9 18:06:58 10° S 18:10:34 67° W 18:14:06 10° NNW visible
20 Jan 6.5 07:03:22 10° NNE 07:06:50 88° E 07:10:17 10° SSW visible
20 Jan 6.5 17:43:21 10° SSE 17:46:54 63° ENE 17:50:25 10° N visible
20 Jan 10.2 19:19:39 10° WSW 19:20:48 11° W 19:21:56 10° WNW visible
21 Jan 7.8 06:39:48 10° NNE 06:43:08 44° E 06:46:27 10° S visible
21 Jan 7.2 17:20:04 10° SE 17:23:19 33° ENE 17:26:32 10° N visible
21 Jan 9.4 18:54:14 10° SW 18:56:55 20° W 18:59:36 10° NW visible
22 Jan 9.1 06:16:29 10° NE 06:19:21 24° E 06:22:11 10° SSE visible
22 Jan 8.3 18:29:48 10° SSW 18:33:07 35° W 18:36:24 10° NNW visible
23 Jan 9.9 05:53:44 10° ENE 05:55:28 13° E 05:57:13 10° ESE visible
23 Jan 6.9 18:05:50 10° S 18:09:23 69° WSW 18:12:54 10° NNW visible
24 Jan 6.5 07:02:10 10° NNE 07:05:38 86° ESE 07:09:06 10° SSW visible
24 Jan 6.5 17:42:13 10° SSE 17:45:43 61° ENE 17:49:12 10° N visible
24 Jan 10.2 19:18:28 10° WSW 19:19:36 11° W 19:20:45 10° WNW visible
25 Jan 7.9 06:38:35 10° NNE 06:41:55 43° E 06:45:14 10° S visible
25 Jan 9.4 18:53:03 10° SW 18:55:43 20° W 18:58:23 10° NW visible
26 Jan 9.2 06:15:17 10° NE 06:18:08 23° E 06:20:57 10° SSE visible
26 Jan 8.2 18:28:37 10° SSW 18:31:54 36° W 18:35:10 10° NNW visible
